sat.trackr.live / text

‹ back to catalog

SITRO-AIS-58

NORAD 67258 · 2025-313L

PAYLOAD ACTIVE UNKNOWN

§ Identity

Operator
Country
CIS
Launch date
2025-12-28
Launch site
VOSTO
Launch vehicle
Mass (kg)
RCS (m²)

External: N2YO · Heavens-Above · Gunter

§ Orbital elements

Epoch: 2026-09-20T11:36:30.747744Z

Period
94.45 min
Inclination
97.3849°
Eccentricity
0.0015460
Mean motion
15.24597912 rev/d
Perigee alt
481.4 km
Apogee alt
502.6 km
Semi-major
6,870.1 km
B*
2.4867e-4
RAAN
336.7048°
Arg perigee
33.9653°
Mean anomaly
326.2572°
Rev number
4,046

§ Raw data

SITRO-AIS-581 67258U 25313L   26263.48368921  .00006079  00000+0  24867-3 0  99932 67258  97.3849 336.7048 0015460  33.9653 326.2572 15.24597912 40462

JSON: /api/v1/satellites/67258 · /tle

For live sub-satellite position, see the globe view (requires WebGL).

§ Visibility from observer

Set your observer location to see the next 7 days of passes ≥ 10°. The values pass through the URL so the page stays shareable.

No JS? Fill the form by hand. The geolocation button needs JavaScript.